This is the latest recevied weather packets stored in our database for station/object EA3HRE-10. If no packets are shown the sender has not sent any weather packets the latest 10 day(s).
| Time | Temp. | Humidity | Pressure | Rain* | Wind** | Luminosity | Snow |
|---|---|---|---|---|---|---|---|
| 1787418110 | 26.67° C | 48% | 1016.5 hPa | - | - | - | - |
| 1787417210 | 26.67° C | 48% | 1016.5 hPa | - | - | - | - |
| 1787416310 | 26.67° C | 48% | 1016.6 hPa | - | - | - | - |
| 1787415410 | 26.67° C | 48% | 1016.5 hPa | - | - | - | - |
| 1787414510 | 27.22° C | 47% | 1016.5 hPa | - | - | - | - |
| 1787413610 | 26.67° C | 48% | 1016.7 hPa | - | - | - | - |
| 1787412710 | 27.22° C | 46% | 1016.8 hPa | - | - | - | - |
| 1787411810 | 27.22° C | 47% | 1016.7 hPa | - | - | - | - |
| 1787410910 | 26.67° C | 47% | 1016.8 hPa | - | - | - | - |
| 1787410010 | 26.67° C | 47% | 1016.8 hPa | - | - | - | - |
| 1787409110 | 27.22° C | 47% | 1017 hPa | - | - | - | - |
| 1787408210 | 27.22° C | 47% | 1017.2 hPa | - | - | - | - |
| 1787407310 | 28.33° C | 47% | 1017.4 hPa | - | - | - | - |
| 1787406409 | 28.33° C | 46% | 1017.5 hPa | - | - | - | - |
| 1787405510 | 28.33° C | 47% | 1017.6 hPa | - | - | - | - |
| 1787404610 | 27.78° C | 48% | 1017.6 hPa | - | - | - | - |
| 1787403711 | 28.33° C | 50% | 1017.5 hPa | - | - | - | - |
| 1787392841 | 27.22° C | 52% | 1018.2 hPa | - | - | - | - |
| 1787391941 | 26.67° C | 55% | 1018.2 hPa | - | - | - | - |
| 1787391413 | 26.67° C | 55% | 1018.3 hPa | - | - | - | - |
* Rain since midnight (hover to see other rain measurements)
** Current wind speed in m/s (hover to see current wind gust speed)